This is the latest recevied weather packets stored in our database for station/object KB2SKP. If no packets are shown the sender has not sent any weather packets the latest 10 day(s).
| Time | Temp. | Humidity | Pressure | Rain* | Wind** | Luminosity | Snow |
|---|---|---|---|---|---|---|---|
| 1777677499 | 15° C | 57% | 1007.4 hPa | 0 mm | - | 10 W/m² | - |
| 1777677196 | 15° C | 56% | 1007.5 hPa | 0 mm | - | 13 W/m² | - |
| 1777676894 | 15.56° C | 56% | 1007.6 hPa | 0 mm | - | 13 W/m² | - |
| 1777676593 | 15.56° C | 54% | 1007.6 hPa | 0 mm | - | 12 W/m² | - |
| 1777676290 | 15.56° C | 53% | 1007.5 hPa | 0 mm | - | 14 W/m² | - |
| 1777675988 | 15.56° C | 52% | 1007.5 hPa | 0 mm | - | 20 W/m² | - |
| 1777675684 | 15.56° C | 53% | 1007.4 hPa | 0 mm | - | 18 W/m² | - |
| 1777675381 | 16.11° C | 53% | 1007.4 hPa | 0 mm | - | 17 W/m² | - |
| 1777675077 | 16.11° C | 53% | 1007.4 hPa | 0 mm | - | 17 W/m² | - |
| 1777674774 | 16.11° C | 55% | 1007.7 hPa | 0 mm | - | 18 W/m² | - |
| 1777674470 | 16.11° C | 54% | 1007.6 hPa | 0 mm | - | 19 W/m² | - |
| 1777674168 | 16.11° C | 53% | 1007.6 hPa | 0 mm | - | 22 W/m² | - |
| 1777673864 | 16.11° C | 52% | 1007.6 hPa | 0 mm | - | 38 W/m² | - |
| 1777673560 | 16.67° C | 51% | 1007.8 hPa | 0 mm | - | 20 W/m² | - |
| 1777673253 | 16.67° C | 48% | 1007.8 hPa | 0 mm | - | 21 W/m² | - |
| 1777672950 | 16.67° C | 48% | 1008 hPa | 0 mm | - | 22 W/m² | - |
| 1777672647 | 16.67° C | 46% | 1008.1 hPa | 0 mm | - | 61 W/m² | - |
| 1777672342 | 16.67° C | 45% | 1008 hPa | 0 mm | - | 25 W/m² | - |
| 1777672037 | 16.67° C | 44% | 1007.9 hPa | 0 mm | - | 67 W/m² | - |
| 1777671733 | 16.67° C | 43% | 1007.9 hPa | 0 mm | - | 30 W/m² | - |
| 1777671430 | 17.22° C | 43% | 1008 hPa | 0 mm | - | 25 W/m² | - |
| 1777671125 | 17.22° C | 43% | 1008 hPa | 0 mm | - | 25 W/m² | - |
| 1777670822 | 17.22° C | 42% | 1008 hPa | 0 mm | - | 95 W/m² | - |
| 1777670519 | 17.78° C | 42% | 1007.9 hPa | 0 mm | - | 83 W/m² | - |
| 1777670215 | 17.78° C | 43% | 1008.2 hPa | 0 mm | - | 29 W/m² | - |
* Rain latest hour (hover to see other rain measurements)
** Current wind speed in m/s (hover to see current wind gust speed)